Location: Notre Dame Regional High School Observatory
(37.3056°N, 89.6097°W)
Time: 01:02:07
(UTC-05:00)

Okean 2 Rocket - Visible Passes

Search period start: 24 May 2016 00:00
Search period end: 03 June 2016 00:00
Orbit: 618 x 641 km, 82.5° (Epoch: 23 May)

Date Brightness Start Highest point End Pass type
(mag) Time Alt. Az. Time Alt. Az. Time Alt. Az.
25 May 6.3 04:48:55 10° ESE 04:50:23 11° E 04:51:50 10° ENE visible
26 May 5.6 05:07:12 10° SE 05:10:45 24° E 05:14:20 10° NE visible
29 May 5.8 04:31:57 10° SE 04:34:51 17° E 04:37:46 10° NE visible
30 May 4.8 04:51:14 10° SSE 04:55:17 35° E 04:59:22 10° NNE visible
01 Jun 6.0 03:57:11 10° ESE 03:58:57 12° E 04:00:46 10° ENE visible
02 Jun 5.3 04:15:42 10° SE 04:19:21 25° E 04:23:01 10° NE visible
